Marfa, TX

8:47 AM CST on February 06, 2016 (GMT -0600)
Marfa Municipal

Weather History for KMRF - March, 2012

Change the Weather History Date:

Wednesday, March 14, 2012

  Actual Average Record
Temperature  
Mean Temperature 59 °F -  
Max Temperature 77 °F 64 °F 80 °F (2007)
Min Temperature 41 °F 34 °F 24 °F (2006)
Degree Days  
Heating Degree Days 6    
Growing Degree Days 9 (Base 50)    
Moisture  
Dew Point 38 °F    
Average Humidity 58    
Maximum Humidity 93    
Minimum Humidity 12    
Precipitation  
Precipitation 0.00 in - - ()
Sea Level Pressure  
Sea Level Pressure 30.12 in    
Wind  
Wind Speed 5 mph (WNW)    
Max Wind Speed 10 mph    
Max Gust Speed -    
Visibility 10 miles    
Events      
Averages and records for this station are not official NWS values.
T = Trace of Precipitation, MM = Missing Value Source: NWS Daily Summary

Daily Weather History Graph

Daily Weather History Graph

Search for Another Location

Airport or City:

Trip Planner

Search our weather history database for the weather conditions in past years. The results will help you decide how hot, cold, wet, or windy it might be!

Date:

Astronomy

Mar. 14, 2012 Rise Set
Actual Time 8:06 AM CDT 8:04 PM CDT
Civil Twilight 7:42 AM CDT 8:28 PM CDT
Nautical Twilight 7:14 AM CDT 8:55 PM CDT
Astronomical Twilight 6:46 AM CDT 9:23 PM CDT
Moon 2:14 AM CDT (3/14) 12:47 PM CDT (3/14)
Length of Visible Light 12h 45m
Length of Day
11h 57m
Waning Gibbous, 54% of the Moon is Illuminated
Mar 14
Waning Gibbous
Mar 14
Last Quarter
Mar 22
New
Mar 30
First Quarter
Apr 6
Full

Hourly Weather History & Observations

Time (CDT) Temp. Windchill Dew Point Humidity Pressure Visibility Wind Dir Wind Speed Gust Speed Precip Events Conditions
12:15 AM 55.4 °F - 50.0 °F 82% 30.10 in 10.0 mi NW 3.5 mph - N/A   Clear
12:35 AM 50.0 °F - 37.4 °F 62% 30.10 in 10.0 mi NNW 8.1 mph - N/A   Clear
12:55 AM 48.2 °F - 39.2 °F 71% 30.10 in 10.0 mi NW 8.1 mph - N/A   Clear
1:15 AM 48.2 °F - 39.2 °F 71% 30.10 in 10.0 mi NW 9.2 mph - N/A   Clear
1:35 AM 48.2 °F - 39.2 °F 71% 30.09 in 10.0 mi NW 6.9 mph - N/A   Clear
1:55 AM 46.4 °F 43.5 °F 37.4 °F 71% 30.09 in 10.0 mi WNW 5.8 mph - N/A   Clear
2:15 AM 46.4 °F 42.4 °F 37.4 °F 71% 30.09 in 10.0 mi NW 8.1 mph - N/A   Clear
2:35 AM 46.4 °F 42.9 °F 35.6 °F 66% 30.09 in 10.0 mi NW 6.9 mph - N/A   Clear
2:55 AM 44.6 °F 41.4 °F 35.6 °F 71% 30.09 in 10.0 mi WNW 5.8 mph - N/A   Clear
3:15 AM 44.6 °F 41.4 °F 35.6 °F 71% 30.08 in 10.0 mi WNW 5.8 mph - N/A   Clear
3:35 AM 42.8 °F 39.3 °F 35.6 °F 76% 30.08 in 10.0 mi WNW 5.8 mph - N/A   Clear
3:55 AM 44.6 °F 40.2 °F 35.6 °F 71% 30.08 in 10.0 mi NW 8.1 mph - N/A   Clear
4:15 AM 42.8 °F 38.6 °F 35.6 °F 76% 30.08 in 10.0 mi NNW 6.9 mph - N/A   Clear
4:35 AM 42.8 °F 39.3 °F 35.6 °F 76% 30.08 in 10.0 mi North 5.8 mph - N/A   Clear
4:55 AM 42.8 °F 39.3 °F 35.6 °F 76% 30.08 in 10.0 mi North 5.8 mph - N/A   Clear
5:15 AM 41.0 °F 36.4 °F 33.8 °F 76% 30.08 in 10.0 mi North 6.9 mph - N/A   Clear
5:35 AM 42.8 °F 38.6 °F 37.4 °F 81% 30.08 in 10.0 mi North 6.9 mph - N/A   Clear
5:55 AM 44.6 °F 41.4 °F 39.2 °F 81% 30.08 in 10.0 mi NNW 5.8 mph - N/A   Clear
6:15 AM 44.6 °F 41.4 °F 39.2 °F 81% 30.09 in 10.0 mi North 5.8 mph - N/A   Clear
6:35 AM 44.6 °F 39.7 °F 39.2 °F 81% 30.09 in 10.0 mi NNW 9.2 mph - N/A   Clear
6:55 AM 44.6 °F 39.2 °F 42.8 °F 93% 30.10 in 10.0 mi NNW 10.4 mph - N/A   Clear
7:15 AM 44.6 °F 39.7 °F 42.8 °F 93% 30.10 in 10.0 mi NNW 9.2 mph - N/A   Clear
7:35 AM 44.6 °F 40.2 °F 42.8 °F 93% 30.11 in 10.0 mi North 8.1 mph - N/A   Clear
7:55 AM 42.8 °F - 41.0 °F 93% 30.11 in 10.0 mi Calm Calm - N/A   Clear
8:15 AM 42.8 °F 38.6 °F 39.2 °F 87% 30.11 in 10.0 mi NNW 6.9 mph - N/A   Clear
8:35 AM 41.0 °F 38.0 °F 37.4 °F 87% 30.12 in 10.0 mi North 4.6 mph - N/A   Clear
8:55 AM 42.8 °F 40.1 °F 39.2 °F 87% 30.13 in 10.0 mi NW 4.6 mph - N/A   Clear
9:15 AM 46.4 °F - 41.0 °F 81% 30.13 in 10.0 mi Calm Calm - N/A   Clear
9:35 AM 53.6 °F - 48.2 °F 82% 30.14 in 10.0 mi Calm Calm - N/A   Clear
9:55 AM 60.8 °F - 51.8 °F 72% 30.15 in 10.0 mi SE 3.5 mph - N/A   Clear
10:15 AM 60.8 °F - 51.8 °F 72% 30.16 in 10.0 mi SSW 3.5 mph - N/A   Clear
10:35 AM 62.6 °F - 51.8 °F 68% 30.17 in 10.0 mi Calm Calm - N/A   Clear
10:55 AM 62.6 °F - 51.8 °F 68% 30.18 in 10.0 mi SSW 6.9 mph - N/A   Clear
11:15 AM 64.4 °F - 51.8 °F 64% 30.18 in 10.0 mi South 6.9 mph - N/A   Clear
11:35 AM 64.4 °F - 50.0 °F 59% 30.18 in 10.0 mi SSW 6.9 mph - N/A   Clear
11:55 AM 66.2 °F - 50.0 °F 56% 30.18 in 10.0 mi SSW 6.9 mph - N/A   Clear
12:15 PM 66.2 °F - 51.8 °F 60% 30.18 in 10.0 mi South 6.9 mph - N/A   Clear
12:35 PM 66.2 °F - 50.0 °F 56% 30.18 in 10.0 mi SSW 3.5 mph - N/A   Clear
12:55 PM 66.2 °F - 48.2 °F 52% 30.18 in 10.0 mi Calm Calm - N/A   Clear
1:15 PM 68.0 °F - 46.4 °F 46% 30.18 in 10.0 mi South 4.6 mph - N/A   Clear
1:35 PM 68.0 °F - 44.6 °F 43% 30.17 in 10.0 mi Calm Calm - N/A   Clear
1:55 PM 68.0 °F - 42.8 °F 40% 30.16 in 10.0 mi South 3.5 mph - N/A   Clear
2:15 PM 69.8 °F - 41.0 °F 35% 30.15 in 10.0 mi SW 3.5 mph - N/A   Clear
2:35 PM 71.6 °F - 37.4 °F 29% 30.15 in 10.0 mi ENE 4.6 mph - N/A   Clear
2:55 PM 71.6 °F - 33.8 °F 25% 30.13 in 10.0 mi ESE 4.6 mph - N/A   Clear
3:15 PM 73.4 °F - 33.8 °F 23% 30.12 in 10.0 mi Calm Calm - N/A   Clear
3:35 PM 73.4 °F - 33.8 °F 23% 30.11 in 10.0 mi SW 5.8 mph - N/A   Clear
3:55 PM 75.2 °F - 30.2 °F 19% 30.10 in 10.0 mi Calm Calm - N/A   Clear
4:15 PM 73.4 °F - 28.4 °F 19% 30.10 in 10.0 mi Calm Calm - N/A   Clear
4:35 PM 75.2 °F - 30.2 °F 19% 30.10 in 10.0 mi East 3.5 mph - N/A   Clear
4:55 PM 75.2 °F - 28.4 °F 18% 30.10 in 10.0 mi SSE 4.6 mph - N/A   Clear
5:15 PM 75.2 °F - 26.6 °F 17% 30.10 in 10.0 mi Calm Calm - N/A   Clear
5:35 PM 75.2 °F - 24.8 °F 15% 30.10 in 10.0 mi Calm Calm - N/A   Clear
5:55 PM 77.0 °F - 24.8 °F 14% 30.09 in 10.0 mi Calm Calm - N/A   Clear
6:15 PM 75.2 °F - 23.0 °F 14% 30.09 in 10.0 mi Calm Calm - N/A   Clear
6:35 PM 75.2 °F - 21.2 °F 13% 30.10 in 10.0 mi WSW 3.5 mph - N/A   Clear
6:55 PM 75.2 °F - 21.2 °F 13% 30.10 in 10.0 mi SW 3.5 mph - N/A   Clear
7:15 PM 75.2 °F - 19.4 °F 12% 30.10 in 10.0 mi WSW 6.9 mph - N/A   Clear
7:55 PM 71.6 °F - 17.6 °F 13% 30.10 in 10.0 mi West 3.5 mph - N/A   Clear
8:15 PM 69.8 °F - 17.6 °F 14% 30.11 in 10.0 mi WSW 5.8 mph - N/A   Clear
8:35 PM 66.2 °F - 17.6 °F 15% 30.11 in 10.0 mi WSW 3.5 mph - N/A   Clear
8:55 PM 64.4 °F - 21.2 °F 19% 30.12 in 10.0 mi SE 6.9 mph - N/A   Clear
9:15 PM 66.2 °F - 30.2 °F 26% 30.13 in 10.0 mi ESE 3.5 mph - N/A   Clear
9:35 PM 64.4 °F - 30.2 °F 28% 30.13 in 10.0 mi ESE 3.5 mph - N/A   Clear
9:55 PM 62.6 °F - 30.2 °F 30% 30.14 in 10.0 mi Calm Calm - N/A   Clear
10:15 PM 60.8 °F - 28.4 °F 29% 30.15 in 10.0 mi Calm Calm - N/A   Clear
10:35 PM 57.2 °F - 32.0 °F 38% 30.15 in 10.0 mi Calm Calm - N/A   Clear
10:55 PM 53.6 °F - 28.4 °F 38% 30.15 in 10.0 mi WNW 3.5 mph - N/A   Clear
11:15 PM 55.4 °F - 30.2 °F 38% 30.16 in 10.0 mi Calm Calm - N/A   Clear
11:35 PM 53.6 °F - 30.2 °F 41% 30.16 in 10.0 mi Calm Calm - N/A   Clear
11:55 PM 51.8 °F - 28.4 °F 41% 30.16 in 10.0 mi WNW 8.1 mph - N/A   Clear